Regional Weather Roundup
Issued by NWS New Orleans/Baton Rouge, LA

Home | Current Version | Previous Version | Text Only | Print | Product List | Glossary On
Versions: 1 2 3 4 5 6 7 8 9 10 11 12 13 14 15 16 17 18 19 20 21 22 23 24 25 26 27 28 29 30 31 32 33 34 35 36 37 38 39 40 41 42 43 44 45 46 47 48 49 50
000
ASUS44 KLIX 040811
RWRLIX
NEW ORLEANS REGIONAL WEATHER ROUNDUP
NATIONAL WEATHER SERVICE NEW ORLEANS LA
300 AM CDT FRI SEP 04 2015

NOTE: "FAIR" INDICATES FEW OR NO CLOUDS BELOW 12,000 FEET WITH NO
      SIGNIFICANT WEATHER AND/OR OBSTRUCTIONS TO VISIBILITY.
      SKY/WX - SKY CONDITION AND SIGNIFICANT WEATHER.
      TMP - AIR TEMPERATURE.     DP    - DEWPOINT TEMPERATURE.
      RH  - RELATIVE HUMIDITY.   PRES  - PRESSURE.
      HI  - HEAT INDEX.          WCI   - WIND CHILL INDEX.

*  THESE STATIONS ARE NOT NWS OR FAA STATIONS AND ARE NOT UNDER
   NWS QUALITY CONTROL.

LAZ038-040-048-061>063-065>067-069-040900-
SOUTHEAST LOUISIANA

CITY           SKY/WX    TMP DP  RH WIND       PRES   REMARKS
N.O. AUDUBON   NOT AVBL
N.O. INTL ARPT PTCLDY    76  72  87 CALM      29.94R
N.O. LAKEFRONT CLEAR     78  74  87 S5        29.95R
N.O. DOWNTOWN*   N/A     81  75  83 S3        29.95S
RESERVE*         N/A     77  75  93 CALM      29.94R
SLIDELL        CLEAR     73  72  96 CALM      29.93F
BATON ROUGE    CLEAR     75  73  93 NE3       29.94S
BOOTHVILLE     PTCLDY    79  76  90 E3        29.95S
BELLE CHASSE   CLEAR     74  72  93 CALM      29.94R
BOGALUSA*      NOT AVBL
GALLIANO*      SUNNY     73  72  99 CALM      29.94R
NEW ROADS*       N/A     74  73  96 CALM      29.94S
GONZALES*        N/A     74  74 100 CALM      29.93S
HAMMOND*       CLEAR     73  72  94 CALM      29.95F
HOUMA*         PTCLDY    75  75  99 CALM      29.94R
PORT FOURCHON* SUNNY     82  75  78 S6        29.95R

$$

MSZ070-080>082-040900-
SOUTHERN MISSISSIPPI

CITY           SKY/WX    TMP DP  RH WIND       PRES   REMARKS
MCCOMB         CLEAR     72  72 100 CALM      29.96S
GULFPORT       CLEAR     74  72  93 CALM      29.94S
BILOXI         CLEAR     78  74  88 NE3       29.94S
PASCAGOULA     CLEAR     70  70 100 CALM      29.95S

$$

COASTAL OBSERVATIONS
LAKE AND NEARSHORE STATIONS

STATION/POSITION TIME  TEMP    WIND        PRES    WAVE
                       AIR SEA DIR/SP/G            HT/PER
                 (UTC) (F)     (DEG/KT/KT) (MB)    (FT/S)
PASCAGOULA       0700   81     230/  5/  8 1013.7
WAVELAND YACHT   0700   78 85  240/  3/  3 1014.3
GRAND ISLE       0700   82 84  140/  4/  6 1013.8
SOUTHWEST PASS   0700   81 85  130/  5/  6 1014.1
NEW CANAL        0700   79 84   CALM  /  1 1012.9
SHELL BEACH      0700   79 85  150/  3/  4 1013.1

OFFSHORE STATIONS

STATION/POSITION TIME  TEMP    WIND        PRES    WAVE
                       AIR SEA DIR/SP/G            HT/PER
                 (UTC) (F)     (DEG/KT/KT) (MB)    (FT/S)
64 S DAUPHIN ISL 0750   82 84  240/  4/  6 1014.2    1/ 4

$$




USA.gov is the U.S. government's official web portal to all federal, state and local government web resources and services.